EW8756 Weather Reports


Display with metric or nautical units.
time (UTC)temp
F
wind
direction
speed
MPH
gust
MPH
rain 1hr
in
rain 24hr
in
rain mn
in
humidity
%
barometer
mb
20260503201544 74 38 6.0 12.0 0.00 0.00 0.00 51 1012.3
20260503200041 74 126 1.0 8.0 0.00 0.00 0.00 51 1012.4
20260503194542 73 314 5.0 11.0 0.00 0.00 0.00 52 1012.6
20260503193044 73 41 2.0 10.0 0.00 0.00 0.00 52 1012.8
20260503191559 73 347 9.0 12.0 0.00 0.00 0.00 52 1012.9
20260503190032 72 272 4.0 9.0 0.00 0.00 0.00 54 1013.1
20260503184523 71 324 2.0 9.0 0.00 0.00 0.00 56 1013.3
20260503183020 71 354 3.0 10.0 0.00 0.00 0.00 55 1013.5
20260503181516 70 359 3.0 8.0 0.00 0.00 0.00 56 1013.5
20260503180012 69 354 5.0 10.0 0.00 0.00 0.00 59 1013.7
20260503174508 68 258 5.0 11.0 0.00 0.00 0.00 59 1013.7
20260503173005 68 314 4.0 8.0 0.00 0.00 0.00 58 1013.8
20260503171600 67 4 4.0 8.0 0.00 0.00 0.00 61 1013.8
20260503170111 67 350 5.0 9.0 0.00 0.00 0.00 61 1013.9
20260503090153 55 115 1.0 5.0 0.00 0.00 0.00 84 1014.4
20260503081535 56 140 0.0 2.0 0.00 0.00 0.00 80 1014.4
20260503071519 59 147 0.0 0.0 0.00 0.00 0.00 75 1014.5
20260503054515 60 167 1.0 4.0 0.00 0.00 0.00 72 1014.3
20260503053015 61 168 0.0 1.0 0.00 0.00 0.00 69 1014.4
20260503051513 62 168 1.0 2.0 0.00 0.00 0.00 66 1014.3
20260503050015 63 129 0.0 3.0 0.00 0.00 0.00 64 1014.2
20260503044514 63 135 2.0 4.0 0.00 0.00 0.00 65 1014.2
20260503043012 64 97 1.0 4.0 0.00 0.00 0.00 63 1014.0
20260503041512 65 323 2.0 4.0 0.00 0.00 0.00 61 1013.6
20260503040011 65 319 3.0 5.0 0.00 0.00 0.00 60 1013.5
20260503034512 66 320 3.0 4.0 0.00 0.00 0.00 58 1013.3
20260503033010 67 354 1.0 5.0 0.00 0.00 0.00 57 1013.2
20260503031510 68 328 1.0 5.0 0.00 0.00 0.00 55 1013.0
20260503030010 69 326 4.0 6.0 0.00 0.00 0.00 53 1012.8
20260503024513 70 342 3.0 6.0 0.00 0.00 0.00 52 1012.7
20260503023009 70 325 5.0 11.0 0.00 0.00 0.00 51 1012.7
20260503021509 71 347 5.0 10.0 0.00 0.00 0.00 50 1012.7
20260503020009 71 348 3.0 10.0 0.00 0.00 0.00 51 1012.7
20260503014508 71 354 6.0 12.0 0.00 0.00 0.00 50 1012.7
20260503013012 72 62 2.0 11.0 0.00 0.00 0.00 51 1012.7
20260503011507 72 354 5.0 11.0 0.00 0.00 0.00 50 1012.8
20260503010006 72 4 6.0 13.0 0.00 0.00 0.00 50 1012.8
20260503004504 71 324 8.0 13.0 0.00 0.00 0.00 49 1013.0
20260503003100 71 354 6.0 13.0 0.00 0.00 0.00 50 1013.0
20260503001558 72 37 5.0 12.0 0.00 0.00 0.00 50 1013.1
20260503000100 71 4 6.0 12.0 0.00 0.00 0.00 51 1013.1
20260502234557 71 341 6.0 14.0 0.00 0.00 0.00 52 1013.3
20260502233056 71 20 5.0 13.0 0.00 0.00 0.00 55 1013.4
20260502231551 70 345 9.0 15.0 0.00 0.00 0.00 55 1013.6
20260502230047 70 359 6.0 13.0 0.00 0.00 0.00 56 1013.9
20260502224547 70 346 8.0 13.0 0.00 0.00 0.00 57 1014.1
20260502223044 70 45 7.0 12.0 0.00 0.00 0.00 58 1014.3
20260502221539 70 359 8.0 13.0 0.00 0.00 0.00 59 1014.4
20260502220037 69 291 4.0 13.0 0.00 0.00 0.00 60 1014.6
20260502214547 69 245 5.0 13.0 0.00 0.00 0.00 60 1014.8
20260502213034 69 345 4.0 13.0 0.00 0.00 0.00 60 1014.8
20260502211534 69 258 6.0 12.0 0.00 0.00 0.00 61 1015.0
20260502210036 69 280 3.0 11.0 0.00 0.00 0.00 60 1015.1
20260502204528 68 304 1.0 8.0 0.00 0.00 0.00 62 1015.2
20260502203027 67 342 8.0 12.0 0.00 0.00 0.00 62 1015.2